Location: Unspecified
(0.0000°N, 0.0000°E)
Time: 04:32:39
(UTC+01:00)

Vanguard 2 - Visible Passes

Search period start: 17 January 2018 00:00
Search period end: 27 January 2018 00:00
Orbit: 552 x 2940 km, 32.9° (Epoch: 16 January)

Date Brightness Start Highest point End Pass type
(mag) Time Alt. Az. Time Alt. Az. Time Alt. Az.
17 Jan 10.7 04:47:48 16° N 04:47:48 16° N 04:52:00 10° NNE visible
18 Jan 10.8 05:05:07 13° N 05:05:07 13° N 05:09:11 10° NNE visible
19 Jan 10.9 05:22:22 10° NNW 05:23:42 10° N 05:25:36 10° N visible
23 Jan 11.2 06:38:22 10° N 06:42:34 12° NNE 06:47:13 10° NE visible
26 Jan 9.3 20:57:29 10° SSW 21:00:29 16° SSE 21:00:29 16° SSE visible
